[[{"header":{"parameterUnit":"m.s-1","parameterCategory":1,"la1":30.2991,"la2":30.254,"lo1":-89.0895,"lo2":-89.0444,"dy":0.0017,"dx":0.0017,"nx":28,"ny":28,"refTime":"2024-07-25T03:00:00:Z","depth":0,"parameterNumber":2,"parameterNumberName":"U-component_of_WINDS"},"data":[0,0,0,0,0,0,0,0,0,0,0,0,0,0,0,0,0,0,0,0,0,0,0,0,0,0,0,0,0,0,0,0,0,0,0,0,0,0,0,0,0,0,0,0,0,0,0,0,0,0,0,0,0,0,0,0,0,0,-0.5139,-0.5137,0,-0.4946,-0.4944,-0.4942,-0.4844,-0.4844,-0.4844,-0.4843,-0.4644,-0.4639,-0.4634,0,0,0,0,0,0,0,0,0,0,0,0,0,-0.5421,-0.5417,-0.5139,-0.5137,-0.5134,-0.4947,-0.4944,-0.4941,-0.4844,-0.4844,-0.4844,-0.4843,-0.4646,-0.4639,-0.4633,0,0,0,0,0,0,0,0,0,0,0,0,0,-0.5271,-0.5415,-0.514,-0.5063,-0.5054,-0.4947,-0.4944,-0.4941,-0.4844,-0.4844,-0.4844,-0.4843,-0.4648,-0.464,-0.4632,-0.4586,0,0,-0.4608,-0.4605,0,0,0,0,0,0,0,0,-0.5279,-0.5261,-0.5077,-0.5068,-0.5058,-0.4919,-0.497,-0.4822,-0.4844,-0.4924,-0.4843,-0.4843,-0.4735,-0.472,-0.4684,-0.4577,-0.4568,-0.4608,-0.4603,-0.4599,-0.4597,0,0,0,0,0,0,0,-0.529,-0.5268,-0.5063,-0.5074,-0.5063,-0.5038,-0.5016,-0.4942,-0.4832,-0.4917,-0.4909,-0.4888,-0.473,-0.4692,-0.4679,-0.4565,-0.4608,-0.4601,-0.4596,-0.4593,-0.4412,-0.4411,0,0,0,0,0,0,-0.5313,-0.5278,-0.5069,-0.5057,-0.5171,-0.5033,-0.5009,-0.4964,-0.4833,-0.4813,-0.4888,-0.4884,-0.4706,-0.4688,-0.4672,-0.4609,-0.46,-0.4592,-0.4588,-0.4412,-0.4412,-0.4411,0,0,0,0,0,0,-0.5319,-0.5295,-0.5077,-0.5165,-0.5135,-0.5028,-0.4978,-0.496,-0.4922,-0.4811,-0.4791,-0.4869,-0.4705,-0.4683,-0.4609,-0.4601,-0.4589,-0.4581,-0.4412,-0.4412,-0.4411,-0.4485,0,0,0,0,0,0,-0.5328,-0.5298,-0.528,-0.5166,-0.5131,-0.5017,-0.4978,-0.4956,-0.4909,-0.4901,-0.4788,-0.477,-0.4703,-0.4621,-0.4601,-0.459,-0.4575,-0.4412,-0.4412,-0.4412,-0.4482,-0.4487,-0.4491,0,0,0,0,0,-0.5338,-0.5307,-0.5279,-0.5255,-0.5106,-0.5017,-0.4997,-0.4922,-0.4909,-0.4889,-0.4818,-0.4773,-0.4606,-0.4614,-0.4591,-0.4577,-0.4412,-0.4412,-0.4412,-0.4481,-0.4486,-0.4491,0,0,0,0,0,0,-0.5422,-0.5291,-0.5258,-0.5189,-0.5115,-0.5001,-0.4973,-0.493,-0.4858,-0.4854,-0.4763,-0.4738,-0.4673,-0.4618,-0.463,-0.4527,-0.4504,-0.4499,-0.4565,-0.4569,-0.4574,-0.4588,-0.4569,0,0,0,0,0,-0.5433,-0.5372,-0.526,-0.521,-0.5175,-0.5081,-0.504,-0.4988,-0.4908,-0.4876,-0.4799,-0.4722,-0.4652,-0.4608,-0.4537,-0.4475,-0.4449,-0.4454,-0.4459,-0.4463,-0.4459,-0.4423,-0.4424,-0.4411,-0.4411,-0.4411,0,0,-0.5453,-0.5374,-0.5341,-0.5225,-0.5162,-0.5101,-0.5055,-0.4992,-0.4946,-0.4865,-0.4791,-0.4733,-0.4641,-0.4573,-0.4539,-0.4525,-0.4457,-0.4462,-0.4466,-0.446,-0.4423,-0.4424,-0.4425,-0.4411,-0.4411,-0.4411,0,0,-0.546,-0.5394,-0.5345,-0.5283,-0.5189,-0.5127,-0.5116,-0.5008,-0.4966,-0.4891,-0.4829,-0.4773,-0.4654,-0.4592,-0.4544,-0.453,-0.4486,-0.451,-0.4532,-0.4498,-0.4499,-0.4499,-0.4494,-0.4494,-0.4507,-0.4507,-0.4507,0,-0.5497,-0.5403,-0.5326,-0.5266,-0.5218,-0.5144,-0.5094,-0.5037,-0.4924,-0.4892,-0.4878,-0.4729,-0.4662,-0.4578,-0.4575,-0.4539,-0.4524,-0.4522,-0.4505,-0.4505,-0.4504,-0.4498,-0.4497,-0.4511,-0.451,-0.451,-0.451,0,-0.5454,-0.539,-0.5362,-0.5256,-0.5204,-0.515,-0.5065,-0.5021,-0.4976,-0.4916,-0.484,-0.4758,-0.4669,-0.4646,-0.46,-0.4557,-0.4551,-0.4523,-0.4498,-0.451,-0.4503,-0.45,-0.4516,-0.4514,-0.4513,-0.4513,0,0,-0.5505,-0.5359,-0.535,-0.5302,-0.5193,-0.5142,-0.5085,-0.5,-0.4965,-0.489,-0.484,-0.4743,-0.4716,-0.4663,-0.4609,-0.458,-0.4574,-0.4554,-0.4551,-0.4561,-0.4522,-0.4544,-0.4543,-0.4545,-0.4545,-0.4544,-0.453,0,-0.5496,-0.5391,-0.5321,-0.5244,-0.5184,-0.5114,-0.5065,-0.4993,-0.4936,-0.4877,-0.4813,-0.4746,-0.4716,-0.4684,-0.4651,-0.4582,-0.4565,-0.4582,-0.4497,-0.4495,-0.4522,-0.4539,-0.4561,-0.4552,-0.4527,-0.4526,-0.4526,0,-0.5471,-0.54,-0.5317,-0.5216,-0.5188,-0.5145,-0.5063,-0.5007,-0.4925,-0.4885,-0.4828,-0.4774,-0.4711,-0.4694,-0.4606,-0.462,-0.4581,-0.4542,-0.454,-0.4528,-0.4511,-0.4527,-0.4547,-0.4545,-0.4521,-0.4521,-0.4521,0,-0.5517,-0.54,-0.5336,-0.5297,-0.5177,-0.5149,-0.5098,-0.5015,-0.4969,-0.4897,-0.4867,-0.4788,-0.4745,-0.4685,-0.4612,-0.4606,-0.4532,-0.4509,-0.4498,-0.45,-0.4484,-0.4486,-0.4497,-0.4461,-0.4461,-0.4461,-0.4461,0,-0.5513,-0.5465,-0.5355,-0.5315,-0.526,-0.518,-0.5127,-0.5071,-0.4998,-0.4946,-0.4881,-0.4834,-0.474,-0.4682,-0.4624,-0.4561,-0.4542,-0.4508,-0.4493,-0.4513,-0.4518,-0.4486,-0.4485,-0.446,-0.4461,-0.4461,-0.4461,0,-0.5554,-0.5478,-0.5404,-0.5298,-0.5271,-0.5234,-0.5144,-0.5103,-0.5043,-0.4979,-0.4959,-0.4865,-0.4793,-0.4715,-0.4616,-0.4577,-0.4517,-0.4496,-0.4545,-0.4536,-0.453,-0.4532,-0.452,-0.4515,-0.4484,-0.4484,-0.4485,0,-0.5557,-0.5519,-0.5409,-0.5371,-0.5322,-0.526,-0.5213,-0.5134,-0.5088,-0.4992,-0.4963,-0.4886,-0.4821,-0.4709,-0.4632,-0.4556,-0.4532,-0.4534,-0.452,-0.4543,-0.4532,-0.4535,-0.4531,-0.4538,-0.4538,-0.4539,-0.454,0,-0.5569,-0.5534,-0.547,-0.5393,-0.5339,-0.5275,-0.5207,-0.5179,-0.5086,-0.5038,-0.4964,-0.4914,-0.4814,-0.4739,-0.4654,-0.4601,-0.4555,-0.4545,-0.4538,-0.4558,-0.4588,-0.4572,-0.4556,-0.4545,-0.4544,-0.4544,-0.4544,-0.4543,-0.559,-0.5554,-0.5472,-0.5403,-0.5344,-0.5283,-0.524,-0.5176,-0.5113,-0.5026,-0.4984,-0.491,-0.483,-0.4712,-0.4661,-0.4602,-0.4588,-0.4578,-0.4576,-0.4574,-0.458,-0.4599,-0.4587,-0.4586,-0.4586,-0.4586,-0.4586,0,-0.5599,-0.5544,-0.5481,-0.539,-0.5336,-0.5299,-0.5223,-0.518,-0.5117,-0.5046,-0.4984,-0.49,-0.4827,-0.4746,-0.4668,-0.4637,-0.4614,-0.4619,-0.462,-0.4609,-0.4597,-0.4611,-0.4639,-0.4639,-0.4639,-0.4639,-0.4639,-0.4639,-0.5598,-0.5534,-0.549,-0.5397,-0.5341,-0.5269,-0.5229,-0.5173,-0.5117,-0.5026,-0.4966,-0.4914,-0.4839,-0.4756,-0.4688,-0.4666,-0.464,-0.4651,-0.4623,-0.4614,-0.4609,-0.4605,-0.4617,-0.4647,-0.4647,-0.4639,-0.4639,-0.4639]},{"header":{"parameterUnit":"m.s-1","parameterCategory":1,"la1":30.2991,"la2":30.254,"lo1":-89.0895,"lo2":-89.0444,"dy":0.0017,"dx":0.0017,"nx":28,"ny":28,"refTime":"2024-07-25T03:00:00:Z","depth":0,"parameterNumber":3,"parameterNumberName":"V-component_of_WINDS"},"data":[0,0,0,0,0,0,0,0,0,0,0,0,0,0,0,0,0,0,0,0,0,0,0,0,0,0,0,0,0,0,0,0,0,0,0,0,0,0,0,0,0,0,0,0,0,0,0,0,0,0,0,0,0,0,0,0,0,0,2.1385,2.1385,0,2.1415,2.1415,2.1415,2.1459,2.146,2.1461,2.1461,2.149,2.149,2.149,0,0,0,0,0,0,0,0,0,0,0,0,0,2.1362,2.1362,2.1385,2.1385,2.1385,2.1415,2.1415,2.1416,2.1459,2.146,2.1461,2.1462,2.149,2.149,2.149,0,0,0,0,0,0,0,0,0,0,0,0,0,2.138,2.1362,2.1384,2.1411,2.1413,2.1415,2.1415,2.1416,2.1459,2.146,2.1461,2.1462,2.149,2.149,2.149,2.1468,0,0,2.149,2.149,0,0,0,0,0,0,0,0,2.1379,2.1381,2.1406,2.1409,2.1412,2.1435,2.1418,2.1433,2.1459,2.1441,2.1462,2.1463,2.1471,2.1472,2.1475,2.1469,2.147,2.149,2.149,2.1491,2.1491,0,0,0,0,0,0,0,2.1378,2.138,2.1396,2.1407,2.141,2.142,2.1424,2.1421,2.1449,2.1443,2.1446,2.1449,2.1472,2.1475,2.1476,2.1471,2.149,2.1491,2.1491,2.1491,2.1447,2.1446,0,0,0,0,0,0,2.1373,2.1378,2.1396,2.1397,2.1398,2.142,2.1424,2.1426,2.1449,2.1454,2.1448,2.1451,2.1474,2.1476,2.1477,2.1453,2.1491,2.1491,2.1491,2.1448,2.1447,2.1446,0,0,0,0,0,0,2.1372,2.1374,2.1394,2.1389,2.1392,2.1419,2.1421,2.1426,2.1429,2.1453,2.1458,2.1446,2.1475,2.1477,2.147,2.1454,2.1491,2.1491,2.145,2.1448,2.1446,2.1403,0,0,0,0,0,0,2.1371,2.1373,2.1366,2.1388,2.1392,2.1387,2.142,2.1426,2.1429,2.1433,2.1453,2.1457,2.1477,2.147,2.147,2.1455,2.1491,2.1451,2.1449,2.1447,2.1406,2.14,2.1395,0,0,0,0,0,2.137,2.1352,2.1365,2.1367,2.1383,2.1386,2.1388,2.1411,2.1428,2.142,2.1436,2.1457,2.1456,2.1468,2.1469,2.1454,2.1452,2.145,2.1447,2.1408,2.1401,2.1395,0,0,0,0,0,0,2.1326,2.1355,2.137,2.1359,2.137,2.1393,2.1384,2.1403,2.1409,2.1412,2.144,2.1444,2.1433,2.1443,2.1456,2.1433,2.1457,2.1455,2.1428,2.1421,2.1415,2.1413,2.1491,0,0,0,0,0,2.1315,2.1315,2.1341,2.1328,2.1333,2.1357,2.1359,2.1376,2.1388,2.1393,2.1408,2.1418,2.142,2.1421,2.1424,2.1407,2.1412,2.1397,2.1392,2.1387,2.1384,2.1376,2.137,2.1437,2.1437,2.1437,0,0,2.1292,2.1308,2.1306,2.1319,2.133,2.1329,2.1361,2.1358,2.1358,2.1392,2.1386,2.1398,2.1411,2.1398,2.1394,2.1406,2.1367,2.1384,2.138,2.138,2.1372,2.1366,2.136,2.1435,2.1435,2.1436,0,0,2.125,2.1262,2.1253,2.1263,2.1278,2.1295,2.1292,2.1313,2.1322,2.1317,2.1343,2.1342,2.1345,2.1353,2.1358,2.1318,2.1338,2.1319,2.129,2.1281,2.1276,2.1271,2.1257,2.1252,2.1316,2.1316,2.1316,0,2.1219,2.1219,2.1245,2.1242,2.1246,2.1278,2.1268,2.1276,2.1292,2.1294,2.1308,2.1313,2.1324,2.1314,2.1304,2.1307,2.1305,2.1317,2.1275,2.127,2.1266,2.1253,2.1248,2.1313,2.1314,2.1314,2.1314,0,2.1181,2.118,2.1171,2.1186,2.119,2.1183,2.1207,2.1207,2.1224,2.1238,2.1232,2.1247,2.1254,2.1252,2.1268,2.1244,2.1252,2.127,2.1294,2.1257,2.1245,2.124,2.131,2.1311,2.1312,2.1312,0,0,2.1112,2.1141,2.1137,2.1144,2.1164,2.1164,2.1158,2.1165,2.1165,2.1174,2.117,2.1172,2.1189,2.1194,2.1211,2.1203,2.1171,2.1222,2.1223,2.1212,2.1145,2.1132,2.1126,2.1184,2.1183,2.1182,2.1144,0,2.1073,2.1066,2.1089,2.1076,2.1076,2.1106,2.1101,2.1112,2.1125,2.1126,2.1141,2.1142,2.1164,2.1167,2.1161,2.1176,2.1158,2.1179,2.1179,2.1179,2.1175,2.1119,2.1105,2.1069,2.114,2.1139,2.1138,0,2.1028,2.1035,2.1022,2.1042,2.1043,2.1038,2.1047,2.1048,2.1061,2.1071,2.1076,2.1096,2.1091,2.1115,2.1108,2.1122,2.1123,2.1131,2.113,2.1131,2.1157,2.1119,2.1058,2.1052,2.1131,2.1132,2.1132,0,2.0979,2.0986,2.0979,2.0984,2.1007,2.1003,2.1012,2.1026,2.1029,2.1036,2.1038,2.1044,2.1047,2.1051,2.1072,2.1087,2.1063,2.1088,2.1071,2.107,2.1064,2.1065,2.1003,2.1065,2.1065,2.1065,2.1065,0,2.0934,2.0924,2.0957,2.0953,2.0943,2.0969,2.0959,2.0971,2.0983,2.0981,2.1007,2.1004,2.1032,2.1032,2.1048,2.104,2.1041,2.1049,2.1053,2.1047,2.1046,2.1048,2.1052,2.1064,2.1064,2.1064,2.1064,0,2.0877,2.0899,2.0894,2.0916,2.0922,2.0913,2.0932,2.0929,2.0944,2.0941,2.0942,2.0965,2.0967,2.0988,2.0994,2.1005,2.099,2.0999,2.0986,2.0989,2.0971,2.0972,2.0909,2.0902,2.0968,2.0967,2.0967,0,2.0847,2.0841,2.0863,2.0864,2.0873,2.0874,2.0877,2.0902,2.0904,2.0918,2.0912,2.0916,2.0921,2.0922,2.0939,2.0943,2.0953,2.093,2.0954,2.0947,2.0953,2.0953,2.0952,2.0925,2.0924,2.0924,2.0923,0,2.0792,2.0803,2.0807,2.0815,2.0818,2.0825,2.0834,2.0833,2.086,2.0861,2.0864,2.0867,2.0873,2.0877,2.0884,2.0893,2.0912,2.0916,2.0912,2.0905,2.0898,2.0902,2.0973,2.0917,2.0918,2.0918,2.0918,2.0919,2.0748,2.0744,2.0759,2.0763,2.0772,2.0779,2.0777,2.0792,2.0795,2.0802,2.0817,2.0817,2.0829,2.0841,2.0848,2.0848,2.086,2.0855,2.0853,2.0852,2.0848,2.0898,2.085,2.085,2.085,2.085,2.0851,0,2.0694,2.0705,2.0708,2.072,2.0723,2.0741,2.0751,2.0752,2.0752,2.0762,2.0766,2.0769,2.0772,2.0789,2.0794,2.0791,2.08,2.0791,2.0792,2.0794,2.0837,2.084,2.0784,2.0784,2.0784,2.0784,2.0784,2.0784,2.0667,2.0661,2.0673,2.0672,2.0683,2.0684,2.0688,2.0695,2.0703,2.0705,2.0708,2.0719,2.0732,2.0738,2.0742,2.0747,2.0747,2.0736,2.0744,2.0784,2.0791,2.0797,2.08,2.0736,2.0736,2.07,2.07,2.07]}]]